TimeCST,TemperatureF,Dew PointF,Humidity,Sea Level PressureIn,VisibilityMPH,Wind Direction,Wind SpeedMPH,Gust SpeedMPH,PrecipitationIn,Events,Conditions,WindDirDegrees,DateUTC
12:15 AM,60.8,57.2,88,29.92,10.0,SSW,9.2,-,N/A,,Overcast,210,2014-01-05 06:15:00
12:35 AM,62.6,57.2,82,29.92,10.0,Variable,4.6,12.7,N/A,,Overcast,0,2014-01-05 06:35:00
12:55 AM,62.6,57.2,82,29.91,10.0,Variable,5.8,12.7,N/A,,Overcast,0,2014-01-05 06:55:00
1:15 AM,62.6,57.2,82,29.91,10.0,Variable,5.8,12.7,N/A,,Overcast,0,2014-01-05 07:15:00
1:35 AM,62.6,57.2,82,29.91,10.0,SW,8.1,17.3,N/A,,Overcast,220,2014-01-05 07:35:00
1:55 AM,62.6,57.2,82,29.90,10.0,SW,9.2,18.4,N/A,,Overcast,220,2014-01-05 07:55:00
2:15 AM,62.6,57.2,82,29.90,10.0,SSW,9.2,-,N/A,,Overcast,210,2014-01-05 08:15:00
2:35 AM,62.6,57.2,82,29.89,10.0,SSW,8.1,16.1,N/A,,Overcast,210,2014-01-05 08:35:00
2:55 AM,62.6,59.0,88,29.90,10.0,Calm,Calm,-,N/A,,Overcast,0,2014-01-05 08:55:00
3:15 AM,62.6,59.0,88,29.90,10.0,Variable,5.8,-,N/A,,Overcast,0,2014-01-05 09:15:00
3:35 AM,62.6,59.0,88,29.90,10.0,Variable,4.6,13.8,N/A,,Overcast,0,2014-01-05 09:35:00
3:55 AM,62.6,59.0,88,29.89,10.0,Calm,Calm,-,N/A,,Overcast,0,2014-01-05 09:55:00
4:15 AM,62.6,59.0,88,29.89,10.0,Calm,Calm,-,N/A,,Overcast,0,2014-01-05 10:15:00
4:35 AM,62.6,59.0,88,29.89,10.0,Calm,Calm,-,N/A,,Overcast,0,2014-01-05 10:35:00
4:55 AM,62.6,59.0,88,29.88,-9999.0,Calm,Calm,-,N/A,,Mostly Cloudy,0,2014-01-05 10:55:00
5:15 AM,64.4,60.8,88,29.88,10.0,Calm,Calm,-,N/A,,Overcast,0,2014-01-05 11:15:00
5:35 AM,62.6,59.0,88,29.88,10.0,Calm,Calm,-,N/A,,Overcast,0,2014-01-05 11:35:00
5:55 AM,62.6,59.0,88,29.88,10.0,Variable,5.8,12.7,N/A,,Overcast,0,2014-01-05 11:55:00
6:15 AM,62.6,60.8,94,29.87,10.0,Variable,5.8,12.7,N/A,,Overcast,0,2014-01-05 12:15:00
6:35 AM,62.6,60.8,94,29.87,10.0,Calm,Calm,-,N/A,,Mostly Cloudy,0,2014-01-05 12:35:00
6:55 AM,62.6,60.8,94,29.88,10.0,Calm,Calm,-,N/A,,Overcast,0,2014-01-05 12:55:00
7:15 AM,62.6,60.8,94,29.88,10.0,Variable,3.5,-,N/A,,Overcast,0,2014-01-05 13:15:00
7:35 AM,62.6,60.8,94,29.89,10.0,Variable,5.8,-,N/A,,Overcast,0,2014-01-05 13:35:00
7:55 AM,62.6,60.8,94,29.89,10.0,Calm,Calm,11.5,N/A,,Overcast,0,2014-01-05 13:55:00
8:15 AM,62.6,60.8,94,29.89,10.0,Variable,3.5,-,N/A,,Overcast,0,2014-01-05 14:15:00
8:35 AM,62.6,60.8,94,29.91,10.0,Variable,4.6,-,N/A,,Overcast,0,2014-01-05 14:35:00
8:55 AM,64.4,60.8,88,29.91,10.0,Variable,3.5,-,N/A,,Overcast,0,2014-01-05 14:55:00
9:15 AM,64.4,60.8,88,29.92,10.0,SW,8.1,-,N/A,,Overcast,230,2014-01-05 15:15:00
9:35 AM,64.4,60.8,88,29.92,10.0,SW,9.2,-,N/A,,Overcast,230,2014-01-05 15:35:00
9:55 AM,64.4,60.8,88,29.93,10.0,WSW,9.2,-,N/A,,Overcast,240,2014-01-05 15:55:00
10:15 AM,64.4,60.8,88,29.92,10.0,SW,13.8,-,N/A,,Overcast,230,2014-01-05 16:15:00
10:35 AM,64.4,60.8,88,29.92,10.0,WSW,12.7,-,N/A,,Overcast,240,2014-01-05 16:35:00
10:55 AM,64.4,60.8,88,29.91,10.0,SW,13.8,20.7,N/A,,Mostly Cloudy,230,2014-01-05 16:55:00
11:15 AM,66.2,60.8,83,29.90,10.0,WSW,13.8,19.6,N/A,,Scattered Clouds,240,2014-01-05 17:15:00
11:35 AM,64.4,60.8,88,29.90,10.0,WSW,12.7,18.4,N/A,,Mostly Cloudy,240,2014-01-05 17:35:00
11:55 AM,62.6,59.0,88,29.91,4.0,WNW,23.0,-,N/A,,Overcast,300,2014-01-05 17:55:00
12:15 PM,62.6,60.8,94,29.90,4.0,NW,24.2,-,N/A,,Overcast,310,2014-01-05 18:15:00
12:35 PM,55.4,53.6,94,29.90,10.0,North,33.4,-,N/A,,Overcast,360,2014-01-05 18:35:00
5:55 PM,50.0,35.6,58,30.06,10.0,North,34.5,42.6,N/A,,Unknown,10,2014-01-05 23:55:00
6:15 PM,48.2,35.6,62,30.08,10.0,NNE,32.2,-,N/A,,Clear,20,2014-01-06 00:15:00
6:35 PM,48.2,37.4,66,30.10,10.0,NNE,29.9,36.8,N/A,,Partly Cloudy,20,2014-01-06 00:35:00
6:55 PM,48.2,35.6,62,30.11,10.0,NNE,32.2,-,N/A,,Scattered Clouds,30,2014-01-06 00:55:00
7:15 PM,46.4,33.8,62,30.13,10.0,NNE,33.4,40.3,N/A,,Partly Cloudy,20,2014-01-06 01:15:00
7:35 PM,46.4,32.0,57,30.14,10.0,NNE,32.2,39.1,N/A,,Clear,20,2014-01-06 01:35:00
7:55 PM,44.6,30.2,57,30.16,10.0,NNE,33.4,-,N/A,,Clear,30,2014-01-06 01:55:00
8:15 PM,44.6,28.4,53,30.17,10.0,NNE,34.5,42.6,N/A,,Clear,20,2014-01-06 02:15:00
8:35 PM,44.6,30.2,57,30.19,10.0,NNE,34.5,-,N/A,,Clear,20,2014-01-06 02:35:00
8:55 PM,42.8,28.4,57,30.20,10.0,NNE,32.2,39.1,N/A,,Partly Cloudy,30,2014-01-06 02:55:00
9:15 PM,42.8,28.4,57,30.21,10.0,NNE,29.9,39.1,N/A,,Clear,30,2014-01-06 03:15:00
9:35 PM,41.0,28.4,61,30.22,10.0,NNE,33.4,39.1,N/A,,Partly Cloudy,30,2014-01-06 03:35:00
9:55 PM,41.0,26.6,57,30.23,10.0,NNE,32.2,41.4,N/A,,Partly Cloudy,30,2014-01-06 03:55:00
10:15 PM,41.0,26.6,57,30.24,10.0,NNE,31.1,38.0,N/A,,Clear,30,2014-01-06 04:15:00
10:35 PM,39.2,26.6,61,30.25,10.0,NNE,29.9,36.8,N/A,,Clear,30,2014-01-06 04:35:00
10:55 PM,39.2,26.6,61,30.27,10.0,NNE,28.8,36.8,N/A,,Partly Cloudy,30,2014-01-06 04:55:00
11:15 PM,39.2,26.6,61,30.27,10.0,NE,28.8,36.8,N/A,,Partly Cloudy,40,2014-01-06 05:15:00
11:35 PM,37.4,24.8,60,30.27,10.0,NNE,32.2,41.4,N/A,,Clear,30,2014-01-06 05:35:00
11:55 PM,37.4,24.8,60,30.28,10.0,NE,32.2,-,N/A,,Clear,40,2014-01-06 05:55:00